Location: Barrialito
(10.3588°N, 66.9747°W)
Time: 14:17:47
(UTC+00:00)

Cosmos 1980 Rocket - Pass Details

Date: 08 December 2021
Orbit: 830 x 849 km, 71.0° (Epoch: 19 January)

Event Time Altitude Azimuth Distance (km) Brightness Sun altitude
Rises 22:39:37 0° 342° (NNW) 3,377 5.3 -8.4°
Reaches altitude 10° 22:42:03 10° 342° (NNW) 2,440 4.6 -9.0°
Maximum altitude 22:47:39 82° 255° (WSW) 843 2.3 -10.3°
Drops below altitude 10° 22:53:13 10° 168° (SSE) 2,431 4.7 -11.6°
Sets 22:55:39 0° 167° (SSE) 3,363 5.4 -12.1°
